Terminal Aerodrome Forecast
Issued by NWS Milwaukee/Sullivan, WI

Home | Current Version | Previous Version | Text Only | Print | Product List | Glossary On
Versions: 1 2 3 4 5 6 7 8 9 10 11 12 13 14 15 16 17 18 19 20 21 22 23 24 25 26 27 28 29 30 31 32 33 34 35 36 37
000
FTUS43 KMKX 031422 AAA
TAFMSN
TAF AMD
KMSN 031422Z 0314/0412 19010KT P6SM BKN060
     FM031600 20011G18KT P6SM BKN070
     FM031800 20013G20KT P6SM SCT070
     FM040200 20010KT P6SM BKN090
     FM040300 20009KT 6SM -TSRA SCT035 BKN050CB
     FM040900 22005KT 6SM -SHRA BR BKN035=

USA.gov is the U.S. government's official web portal to all federal, state and local government web resources and services.